This is the latest recevied weather packets stored in our database for station/object W4MLN-3. If no packets are shown the sender has not sent any weather packets the latest 10 day(s).
| Time | Temp. | Humidity | Pressure | Rain* | Wind** | Luminosity | Snow |
|---|---|---|---|---|---|---|---|
| 1778092803 | 21.11° C | 62% | 1012.3 hPa | 0 mm | - | - | - |
| 1778092504 | 21.11° C | 62% | 1012.2 hPa | 0 mm | - | - | - |
| 1778092203 | 20.56° C | 64% | 1012.2 hPa | 0 mm | - | - | - |
| 1778091924 | 20.56° C | 65% | 1012.2 hPa | 0 mm | - | - | - |
| 1778091603 | 20° C | 66% | 1012.2 hPa | 0 mm | - | - | - |
| 1778091304 | 20° C | 67% | 1012.3 hPa | 0 mm | - | - | - |
| 1778091004 | 19.44° C | 70% | 1012.4 hPa | 0 mm | - | - | - |
| 1778090704 | 18.89° C | 70% | 1012.5 hPa | 0 mm | - | - | - |
| 1778090403 | 18.89° C | 70% | 1012.3 hPa | 0 mm | - | - | - |
| 1778090104 | 18.89° C | 71% | 1012.5 hPa | 0 mm | - | - | - |
| 1778089803 | 18.89° C | 71% | 1012.6 hPa | 0 mm | - | - | - |
| 1778089503 | 18.89° C | 71% | 1012.6 hPa | 0 mm | - | - | - |
| 1778089224 | 18.89° C | 69% | 1012.8 hPa | 0 mm | - | - | - |
| 1778088904 | 18.89° C | 70% | 1012.8 hPa | 0 mm | - | - | - |
| 1778088603 | 18.89° C | 72% | 1012.6 hPa | 0.25 mm | - | - | - |
| 1778088303 | 18.33° C | 73% | 1012.6 hPa | 0.25 mm | - | - | - |
| 1778088004 | 17.78° C | 74% | 1012.6 hPa | 0.25 mm | - | - | - |
| 1778087725 | 17.78° C | 76% | 1012.9 hPa | 0.25 mm | - | - | - |
| 1778087403 | 17.22° C | 78% | 1013.2 hPa | 0.25 mm | - | - | - |
| 1778087125 | 17.22° C | 78% | 1013.5 hPa | 0.25 mm | - | - | - |
| 1778086804 | 17.22° C | 79% | 1013.7 hPa | 0.25 mm | - | - | - |
| 1778086524 | 16.67° C | 77% | 1013.8 hPa | 0.25 mm | - | - | - |
| 1778086204 | 16.67° C | 77% | 1013.9 hPa | 0.25 mm | - | - | - |
| 1778085904 | 17.22° C | 78% | 1013.9 hPa | 0.25 mm | - | - | - |
| 1778085604 | 17.22° C | 77% | 1014.1 hPa | 0.25 mm | - | - | - |
* Rain latest hour (hover to see other rain measurements)
** Current wind speed in m/s (hover to see current wind gust speed)